Terug naar catalogus

OBJECT C

ActiefSSO
NORAD 100145·UNKNOWN·🇨🇳 China

Gelanceerd Jul 23, 2026 vanaf Jiuquan Satellite Launch Center

Loading…

Volgende Passages (komende 24 uur)

TLE

VersSource: Space-Track

Epoch: Sep 14, 2026, 11:01 UTC

1 A0145U 26170C   26257.45964399  .00000975  00000-0  67893-4 0  9995
2 A0145  97.5573 263.3981 0017119  98.7662 261.5505 15.07661851  7918

Volg OBJECT C in realtime met AllMySat

Download on the App Store